EN

Hourly Weather Buchholz in der Nordheide

Today, 16 April, Friday

Time Temperature Precipitation Wind Pressure Humidity
00:00 +1°C° 0 mm 2 mps 765 mmHg 79%
01:00 +1°C° 0 mm 2 mps 765 mmHg 80%
02:00 +1°C° 0 mm 2 mps 765 mmHg 82%
03:00 -1°C° 0 mm 2 mps 765 mmHg 85%
04:00 -1°C° 0 mm 2 mps 765 mmHg 87%
05:00 +1°C° 0 mm 2 mps 765 mmHg 85%
06:00 +2°C° 0 mm 2 mps 765 mmHg 83%
07:00 +2°C° 0 mm 2 mps 765 mmHg 81%
08:00 +4°C° 0 mm 2 mps 764 mmHg 71%
09:00 +5°C° 0 mm 3 mps 764 mmHg 60%
10:00 +8°C° 0 mm 3 mps 764 mmHg 50%
11:00 +8°C° 0 mm 4 mps 764 mmHg 46%
12:00 +8°C° 0 mm 4 mps 764 mmHg 43%
13:00 +10°C° 0 mm 4 mps 764 mmHg 40%
14:00 +10°C° 0 mm 4 mps 764 mmHg 42%
15:00 +8°C° 0 mm 4 mps 763 mmHg 43%
16:00 +8°C° 0 mm 4 mps 763 mmHg 45%
17:00 +7°C° 0 mm 4 mps 763 mmHg 52%
18:00 +7°C° 0 mm 3 mps 763 mmHg 58%
19:00 +6°C° 0 mm 2 mps 763 mmHg 65%
20:00 +5°C° 0 mm 2 mps 763 mmHg 68%
21:00 +3°C° 0 mm 2 mps 763 mmHg 71%
22:00 +2°C° 0 mm 2 mps 763 mmHg 74%
23:00 +2°C° 0 mm 2 mps 763 mmHg 75%

Tomorrow, 17 April, Saturday

Time Temperature Precipitation Wind Pressure Humidity
00:00 +2°C° 0 mm 2 mps 763 mmHg 75%
01:00 +1°C° 0 mm 2 mps 763 mmHg 76%
02:00 +1°C° 0 mm 2 mps 763 mmHg 78%
03:00 +1°C° 0 mm 2 mps 762 mmHg 80%
04:00 +1°C° 0 mm 2 mps 762 mmHg 82%
05:00 +2°C° 0 mm 2 mps 762 mmHg 85%
06:00 +3°C° 0 mm 2 mps 762 mmHg 87%
07:00 +3°C° 0 mm 2 mps 762 mmHg 89%
08:00 +4°C° 0 mm 2 mps 762 mmHg 88%
09:00 +4°C° 0 mm 2 mps 762 mmHg 87%
10:00 +4°C° 0 mm 2 mps 762 mmHg 86%
11:00 +5°C° 0 mm 2 mps 762 mmHg 84%
12:00 +6°C° 0 mm 2 mps 762 mmHg 82%
13:00 +6°C° 0 mm 2 mps 762 mmHg 81%
14:00 +7°C° 0 mm 3 mps 762 mmHg 79%
15:00 +8°C° 0 mm 3 mps 761 mmHg 78%
16:00 +8°C° 0 mm 3 mps 761 mmHg 77%
17:00 +8°C° 0 mm 3 mps 761 mmHg 80%
18:00 +7°C° 0 mm 3 mps 761 mmHg 83%
19:00 +7°C° 0 mm 3 mps 761 mmHg 86%
20:00 +6°C° 0 mm 2 mps 761 mmHg 87%
21:00 +6°C° 0 mm 2 mps 761 mmHg 89%
22:00 +6°C° 0 mm 2 mps 762 mmHg 90%
23:00 +5°C° 0 mm 2 mps 761 mmHg 91%

Day after tomorrow, 18 April, Sunday

Time Temperature Precipitation Wind Pressure Humidity
00:00 +5°C° 0 mm 2 mps 761 mmHg 92%
01:00 +5°C° 0 mm 2 mps 761 mmHg 92%
02:00 +5°C° 0 mm 2 mps 761 mmHg 93%
03:00 +5°C° 0 mm 2 mps 761 mmHg 94%
04:00 +5°C° 0 mm 2 mps 761 mmHg 94%
05:00 +6°C° 0 mm 2 mps 761 mmHg 93%
06:00 +6°C° 0 mm 2 mps 761 mmHg 93%
07:00 +6°C° 0 mm 2 mps 761 mmHg 92%
08:00 +7°C° 0 mm 2 mps 761 mmHg 86%
09:00 +8°C° 0 mm 2 mps 761 mmHg 80%
10:00 +9°C° 0 mm 2 mps 761 mmHg 75%
11:00 +10°C° 0 mm 3 mps 761 mmHg 71%
12:00 +11°C° 0 mm 3 mps 761 mmHg 68%
13:00 +12°C° 0 mm 3 mps 760 mmHg 64%
14:00 +12°C° 0.1 mm 3 mps 760 mmHg 65%
15:00 +12°C° 0.1 mm 3 mps 760 mmHg 65%
16:00 +12°C° 0.1 mm 4 mps 760 mmHg 66%
17:00 +11°C° 0.1 mm 4 mps 760 mmHg 71%
18:00 +10°C° 0.1 mm 3 mps 760 mmHg 76%
19:00 +9°C° 0.1 mm 3 mps 760 mmHg 81%
20:00 +9°C° 0.4 mm 3 mps 760 mmHg 86%
21:00 +8°C° 0.4 mm 2 mps 760 mmHg 91%
22:00 +7°C° 0.4 mm 2 mps 760 mmHg 96%
23:00 +7°C° 0.2 mm 2 mps 760 mmHg 96%

19 April, Monday

Time Temperature Precipitation Wind Pressure Humidity
00:00 +7°C° 0.2 mm 2 mps 760 mmHg 96%
01:00 +7°C° 0.2 mm 2 mps 760 mmHg 97%
02:00 +7°C° 0 mm 2 mps 760 mmHg 97%
03:00 +7°C° 0 mm 2 mps 760 mmHg 97%
04:00 +7°C° 0 mm 2 mps 760 mmHg 97%
05:00 +7°C° 0 mm 2 mps 760 mmHg 96%
06:00 +7°C° 0 mm 2 mps 760 mmHg 95%
07:00 +7°C° 0 mm 2 mps 760 mmHg 94%
08:00 +8°C° 0 mm 2 mps 760 mmHg 89%
09:00 +9°C° 0 mm 2 mps 760 mmHg 84%
10:00 +10°C° 0 mm 2 mps 760 mmHg 80%
11:00 +12°C° 0.1 mm 2 mps 759 mmHg 77%
12:00 +12°C° 0.1 mm 3 mps 759 mmHg 74%
13:00 +13°C° 0.1 mm 3 mps 759 mmHg 71%
14:00 +13°C° 0.2 mm 3 mps 759 mmHg 70%
15:00 +13°C° 0.2 mm 3 mps 758 mmHg 69%
16:00 +13°C° 0.2 mm 3 mps 758 mmHg 68%
17:00 +12°C° 0.1 mm 3 mps 758 mmHg 74%
18:00 +11°C° 0.1 mm 3 mps 758 mmHg 79%
19:00 +10°C° 0.1 mm 2 mps 758 mmHg 85%
20:00 +9°C° 0 mm 2 mps 758 mmHg 88%
21:00 +8°C° 0 mm 2 mps 758 mmHg 92%
22:00 +7°C° 0 mm 2 mps 758 mmHg 95%
23:00 +6°C° 0 mm 2 mps 758 mmHg 95%

20 April, Tuesday

Time Temperature Precipitation Wind Pressure Humidity
00:00 +6°C° 0 mm 2 mps 758 mmHg 94%
01:00 +5°C° 0 mm 2 mps 758 mmHg 94%
02:00 +5°C° 0 mm 2 mps 757 mmHg 93%
03:00 +5°C° 0 mm 2 mps 757 mmHg 93%
04:00 +4°C° 0 mm 2 mps 757 mmHg 93%
05:00 +5°C° 0 mm 2 mps 757 mmHg 89%
06:00 +6°C° 0 mm 2 mps 757 mmHg 86%
07:00 +7°C° 0 mm 2 mps 757 mmHg 82%
08:00 +8°C° 0 mm 2 mps 757 mmHg 79%
09:00 +10°C° 0 mm 1 mps 757 mmHg 77%
10:00 +11°C° 0 mm 1 mps 757 mmHg 74%
11:00 +12°C° 0 mm 2 mps 757 mmHg 71%
12:00 +13°C° 0 mm 2 mps 756 mmHg 68%
13:00 +13°C° 0 mm 2 mps 756 mmHg 66%
14:00 +14°C° 0 mm 2 mps 756 mmHg 60%
15:00 +15°C° 0 mm 1 mps 755 mmHg 55%
16:00 +16°C° 0 mm 1 mps 755 mmHg 50%
17:00 +15°C° 0.1 mm 1 mps 755 mmHg 57%
18:00 +13°C° 0.1 mm 1 mps 755 mmHg 65%
19:00 +12°C° 0.1 mm 1 mps 755 mmHg 72%
20:00 +11°C° 0 mm 1 mps 755 mmHg 75%
21:00 +10°C° 0 mm 1 mps 755 mmHg 78%
22:00 +10°C° 0 mm 1 mps 755 mmHg 80%
23:00 +10°C° 0 mm 1 mps 755 mmHg 80%

21 April, Wednesday

Time Temperature Precipitation Wind Pressure Humidity
00:00 +10°C° 0 mm 1 mps 755 mmHg 80%
01:00 +10°C° 0 mm 1 mps 755 mmHg 79%
02:00 +9°C° 0 mm 1 mps 755 mmHg 80%
03:00 +9°C° 0 mm 1 mps 755 mmHg 81%
04:00 +9°C° 0 mm 1 mps 754 mmHg 82%
05:00 +9°C° 0 mm 1 mps 754 mmHg 81%
06:00 +9°C° 0 mm 1 mps 754 mmHg 81%
07:00 +9°C° 0 mm 1 mps 755 mmHg 80%
08:00 +10°C° 0 mm 1 mps 755 mmHg 72%
09:00 +12°C° 0 mm 2 mps 755 mmHg 64%
10:00 +13°C° 0 mm 2 mps 755 mmHg 56%
11:00 +12°C° 0.1 mm 3 mps 754 mmHg 56%
12:00 +12°C° 0.1 mm 4 mps 754 mmHg 57%
13:00 +13°C° 0.1 mm 5 mps 754 mmHg 57%
14:00 +10°C° 0.1 mm 6 mps 754 mmHg 59%
15:00 +9°C° 0.1 mm 6 mps 754 mmHg 61%
16:00 +8°C° 0.1 mm 6 mps 754 mmHg 63%
17:00 +7°C° 0 mm 6 mps 754 mmHg 64%
18:00 +4°C° 0 mm 6 mps 754 mmHg 65%
19:00 +3°C° 0 mm 5 mps 754 mmHg 66%
20:00 +2°C° 0 mm 5 mps 754 mmHg 68%
21:00 +2°C° 0 mm 5 mps 754 mmHg 69%
22:00 +1°C° 0 mm 5 mps 754 mmHg 70%
23:00 +1°C° 0 mm 5 mps 754 mmHg 72%
Show more

We Need Your Consent

Meteoprog and our Service Providers may store and access personal data such as cookies, device identifiers or other similar technologies on your device and process such data to personalise content and ads, as well as provide social media features and to analyse the traffic.

  • Store and/or access information on your device

    Cookies, device identifiers or other information can be stored or accessed on your device for the purposes indicated above.

  • Personalised ads and content, ad and content measurement, audience insights, and products development

    Ads and content can be personalised based on a profile. More data can be added to better personalise ads and content. Ad and content performance can be measured. Insights about the audience who saw the ads and content can be derived. Such data can be used to develop or improve user’s experience, systems and software.

By clicking ‘I Agree’ you will allow the use of indicated cookies, device identifiers, web beacons or other similar technologies. Your settings can be changed in the browser on your device.

For certain purposes, legitimate interests may be relied on, rather than consent. You can read more about this in our Privacy and Cookie Policy.